Flag for U.S.A. Weather past 2 weeks in Avalon (Santa Catalina Island), California, U.S.A.

Now
75 °F

Sunny.


Feels Like: 76 °F
Forecast: 69 / 80 °F
Wind: 6 mph from West

Location: Catalina Airport

Current Time: Mar 27, 2015 at 8:58:27 AM

Latest Report: Mar 27, 2015 at 7:51 AM


Visibility: 10 mi

Pressure: 30.04 "Hg

Humidity: 17%

Dew point: 27 °F

Location of Avalon (Santa Catalina Island)Location

Historic Weather in Avalon (Santa Catalina Island) — Graph

°F

Avalon (Santa Catalina Island) temperature yesterday

Maximum temperature yesterday: 84 °F (at 2:51 PM)
Minimum temperature yesterday: 68 °F (at 1:51 AM)
Average temperature yesterday: 76 °F

Past Weeks' High & Low Weather Summary

 TemperatureHumidityPressure
High84 °F (Mar 14, 12:51 PM)100% (Mar 18, 4:51 AM)30.19 "Hg (Mar 18, 4:51 AM)
Low49 °F (Mar 22, 6:59 AM)13% (Mar 26, 2:51 PM)29.86 "Hg (Mar 16, 5:51 PM)
Average66 °F52%30.02 "Hg
* Reported Mar 12 7:51 AM — Mar 27 7:51 AM, Avalon (Santa Catalina Island), Weather by CustomWeather, © 2015

Note: Actual official high and low records may vary slightly from our data, if they occured in-between our weather recording intervals... More about our weather records

Advertising

Avalon (Santa Catalina Island) weather history for previous 24 hours

 ConditionsComfort  
Time TempWeatherWind HumidityBarometerVisibility
7:51 AM
Fri, Mar 27
75 °FSunny.6 mph17%30.04 "Hg10 mi
6:51 AM74 °FClear.7 mph17%30.01 "Hg10 mi
5:51 AM74 °FClear.6 mph17%30.01 "Hg10 mi
4:51 AM74 °FClear.9 mph17%30.00 "Hg10 mi
3:51 AM73 °FClear.8 mph19%30.00 "Hg10 mi
2:51 AM73 °FClear.7 mph20%30.01 "Hg10 mi
1:51 AM73 °FClear.8 mph21%30.02 "Hg10 mi
12:51 AM73 °FClear.9 mph17%30.02 "Hg10 mi
11:51 PM
Thu, Mar 26
74 °FClear.9 mph17%30.02 "Hg10 mi
10:51 PM73 °FClear.9 mph17%30.02 "Hg10 mi
9:51 PM73 °FClear.12 mph19%30.03 "Hg10 mi
8:51 PM73 °FClear.9 mph19%30.02 "Hg10 mi
7:51 PM71 °FSunny.10 mph25%30.01 "Hg10 mi
6:51 PM81 °FSunny.No wind15%29.99 "Hg10 mi
5:51 PM81 °FSunny.3 mph16%29.99 "Hg10 mi
4:51 PM82 °FSunny.3 mph18%29.99 "Hg10 mi
3:51 PM82 °FSunny.5 mph20%29.99 "Hg10 mi
2:51 PM84 °FSunny.3 mph13%30.01 "Hg10 mi
1:51 PM82 °FSunny.6 mph18%30.04 "Hg10 mi
12:51 PM82 °FSunny.3 mph18%30.05 "Hg10 mi
11:51 AM83 °FSunny.N/A17%30.06 "Hg10 mi
10:51 AM81 °FSunny.6 mph20%30.07 "Hg10 mi
9:51 AM80 °FSunny.6 mph22%30.06 "Hg10 mi
8:51 AM77 °FSunny.8 mph24%30.04 "Hg10 mi
Weather by CustomWeather, © 2015

See weather overviewHow to use our weather pages